Wind_Speed
18 16 15 15 14 13 13 12 11 9 9 8 8 8 9 8 7 7 8 8 9 9 8 8 8 7 7 7 7 8 7 7 8 8 9 10 10 10 10 10 10 9
19 18 17 16 15 14 13 13 12 10 9 9 9 9 9 8 7 7 7 8 8 8 8 8 7 7 6 6 7 7 7 7 7 8 8 10 10 10 10 10 10 9
20 19 18 16 15 14 13 14 12 11 11 10 9 9 9 8 8 8 7 7 8 7 7 7 7 7 6 5 6 6 6 6 7 7 8 8 9 10 11 10 10 9
21 20 19 17 16 15 15 14 13 12 12 10 9 9 9 9 9 8 8 8 7 7 7 7 7 6 6 5 5 5 5 5 6 6 7 7 8 9 10 10 10 10
20 20 20 19 18 18 17 16 14 13 13 11 10 9 9 10 10 9 9 8 7 7 7 6 6 6 6 6 5 5 5 5 5 5 6 7 8 8 9 9 10 10
20 21 21 21 20 19 18 17 16 14 13 12 12 10 10 10 10 10 10 9 8 8 7 7 6 6 5 5 5 5 5 5 5 5 5 6 7 8 8 9 9 10
21 21 21 22 22 22 20 19 18 16 15 14 13 12 11 10 10 10 10 10 9 9 8 8 7 7 6 5 5 5 5 5 5 5 5 5 6 7 8 8 9 9
21 21 22 22 23 23 22 21 20 18 17 16 15 13 13 12 11 11 11 11 11 10 10 9 9 8 7 6 6 6 6 6 6 6 6 5 5 7 8 9 9 9
23 23 23 23 24 24 24 23 22 21 20 18 17 15 15 14 13 12 12 12 12 12 11 11 10 9 8 8 7 7 8 8 7 7 7 6 6 6 8 8 9 9
25 24 24 24 24 24 24 24 23 22 21 20 19 18 17 16 15 15 15 14 13 12 12 12 11 11 10 9 8 9 9 9 9 8 8 8 7 7 8 8 8 8
26 26 25 24 23 23 24 24 25 24 24 23 21 20 19 18 17 17 16 16 15 14 13 12 12 12 11 10 10 10 9 9 9 9 9 9 9 9 9 9 9 9
27 27 26 24 23 22 22 23 25 26 25 25 24 23 22 20 19 19 18 17 16 16 15 14 14 14 13 12 11 11 10 10 10 10 10 10 10 10 10 10 10 10
28 28 27 25 24 23 22 22 23 24 24 25 25 25 24 23 21 20 19 19 18 18 17 16 16 16 15 14 13 13 12 12 11 11 11 11 11 11 11 11 11 11
31 30 29 28 26 25 24 24 23 22 22 23 24 25 26 25 23 22 21 20 20 20 19 18 18 17 17 16 15 15 14 13 13 13 12 12 12 12 12 12 12 12
32 32 31 31 30 28 27 26 25 24 23 22 22 23 24 25 25 24 23 22 22 21 21 20 20 19 18 17 17 16 16 15 15 15 14 14 13 13 13 13 13 13
29 31 32 32 31 30 29 28 27 25 24 23 22 22 22 23 24 24 24 23 22 22 22 22 22 21 20 19 18 18 17 17 17 16 16 16 16 15 15 14 14 14
30 32 33 33 32 30 30 30 29 27 25 24 23 22 21 22 22 22 22 21 21 21 22 23 23 23 22 22 21 20 20 20 19 19 19 19 19 18 18 17 17 17
33 34 33 32 31 31 31 32 30 29 27 25 24 23 23 23 22 22 21 20 19 19 20 21 22 22 23 24 24 23 23 22 22 22 22 22 22 22 21 20 20 20
31 32 31 29 28 28 30 32 32 30 28 27 26 25 25 25 25 24 23 22 21 19 19 20 19 20 21 23 25 25 24 24 24 23 24 24 24 24 24 23 23 22
26 28 28 28 27 27 28 31 32 30 29 29 29 28 28 27 27 26 26 25 24 22 21 20 20 20 21 22 23 24 24 24 24 24 24 24 24 24 24 24 23 23
23 25 27 28 28 28 29 31 30 28 27 28 29 30 30 30 29 29 28 28 27 25 23 22 21 20 21 21 22 23 23 24 24 23 23 23 22 22 21 21 21 21
18 20 23 25 27 27 28 27 25 23 24 25 27 29 30 31 32 31 31 31 29 27 26 24 23 22 21 21 22 22 23 23 23 23 23 22 21 20 20 19 19 20
14 15 17 20 22 22 22 21 20 22 23 24 27 29 30 31 32 33 33 33 31 29 27 26 25 24 23 23 23 22 22 22 22 23 23 22 22 21 21 21 21 21
16 16 17 18 19 18 17 17 18 21 23 24 25 26 27 29 30 30 32 33 32 30 29 27 27 27 27 27 26 26 25 25 25 24 24 24 23 23 23 23 23 24
19 20 20 20 19 17 17 17 17 19 22 23 23 23 24 25 25 26 28 30 31 30 30 28 27 28 28 28 28 28 29 28 28 28 27 26 25 25 25 25 24 24
18 20 21 22 22 21 20 21 21 21 23 25 26 26 26 25 24 24 24 25 27 29 29 28 28 28 29 29 29 29 29 30 30 30 29 29 29 29 28 28 26 25
Wind_Direction
206 203 199 199 200 199 200 200 197 195 197 198 197 198 199 198 198 200 200 203 205 204 200 200 200 201 204 204 204 208 210 209 209 211 215 219 220 219 219 222 225 229
207 204 201 200 201 201 202 204 202 199 201 202 203 205 203 200 200 202 203 208 211 208 203 204 206 204 202 202 205 207 210 213 211 209 213 216 218 221 225 226 226 232
209 206 204 203 203 204 205 206 206 205 206 205 208 211 208 201 203 206 207 209 214 216 211 208 211 210 207 210 212 210 212 217 215 211 211 212 213 219 226 228 228 230
211 210 208 207 206 206 208 207 206 208 210 210 209 213 211 204 204 209 211 210 211 218 219 214 215 216 212 216 219 217 217 217 217 218 217 213 212 217 225 229 229 227
214 214 212 212 210 209 210 208 207 208 210 211 210 211 210 206 204 206 210 210 207 210 217 217 221 224 219 218 221 220 221 220 218 221 223 220 216 216 220 225 229 229
214 215 215 215 214 213 211 209 209 210 209 209 209 209 208 206 205 204 205 208 207 206 209 212 221 231 231 230 230 228 225 223 220 219 223 224 221 218 218 221 226 229
215 217 217 217 217 216 214 210 209 209 209 210 209 208 207 206 206 206 204 205 208 209 210 210 216 225 234 239 240 240 236 231 223 216 218 224 225 223 222 223 223 226
215 217 218 218 218 218 217 214 211 210 209 210 210 209 209 207 206 207 208 207 208 211 214 214 216 220 226 233 239 243 244 241 233 223 222 226 230 231 228 226 225 225
216 216 218 219 218 218 218 217 214 213 212 211 210 211 212 210 207 207 209 210 209 211 214 216 219 221 224 229 235 241 244 246 242 235 231 230 233 238 238 236 234 232
218 216 216 218 218 217 218 218 217 216 216 215 213 213 213 213 211 209 209 210 211 212 213 215 218 221 224 228 235 240 243 246 248 244 240 236 234 238 242 244 243 245
220 219 218 218 218 217 216 216 217 218 218 218 216 217 217 216 216 214 213 213 212 213 214 215 218 220 223 225 230 237 242 247 251 252 251 247 243 242 245 247 248 250
220 222 222 220 219 218 217 216 218 218 219 220 220 219 220 220 220 218 218 218 217 217 216 216 218 220 222 224 226 230 236 243 250 254 256 256 253 250 250 250 251 253
222 222 223 224 223 222 220 218 220 221 222 223 224 223 223 222 223 223 223 223 222 222 221 220 220 220 220 222 224 226 229 235 243 249 253 258 259 258 257 256 256 257
222 224 222 222 223 224 223 221 219 220 222 225 226 227 227 226 226 226 226 228 228 228 227 226 224 223 222 222 223 225 228 232 238 243 248 252 256 258 259 261 261 261
221 226 226 221 219 220 222 222 220 218 219 222 226 228 229 229 229 229 229 231 233 234 234 233 230 228 227 227 227 228 229 231 235 239 243 246 248 249 251 254 258 260
225 230 233 230 225 221 219 220 220 219 217 218 223 227 229 230 231 231 230 231 235 238 240 240 238 234 231 231 233 235 235 235 236 237 240 242 243 245 246 248 250 252
228 229 233 235 233 230 226 219 215 216 216 216 219 223 227 230 231 232 231 230 232 236 240 243 244 243 239 236 235 236 238 239 240 241 242 243 244 244 244 246 247 249
227 228 230 233 234 235 234 228 218 213 214 215 217 218 222 226 228 230 230 228 227 230 235 240 243 246 247 245 241 239 239 241 242 244 245 246 247 248 247 247 248 249
223 225 227 229 231 232 233 232 228 220 216 218 220 219 219 221 223 226 228 228 227 227 231 236 238 242 246 249 249 246 243 243 243 245 247 249 250 251 252 252 252 252
220 222 225 226 228 229 229 231 231 226 222 224 226 225 224 225 224 225 227 228 228 228 231 234 236 237 240 244 248 249 249 248 247 247 249 251 253 254 256 257 258 258
221 222 225 226 226 226 227 230 231 229 228 230 232 233 233 233 232 232 232 232 231 230 232 234 235 237 238 240 243 245 248 250 251 253 254 255 257 260 263 264 265 265
219 220 224 227 227 227 229 233 236 237 237 237 239 241 241 240 239 237 237 237 236 236 236 234 233 233 236 239 240 242 244 247 250 253 256 258 259 262 264 265 266 267
215 217 221 227 229 227 230 237 242 243 241 240 243 246 244 242 240 239 239 239 238 239 240 237 233 232 235 237 239 240 242 246 249 250 252 253 254 254 255 256 257 260
222 222 222 227 230 226 226 234 242 244 243 241 240 240 238 237 238 238 239 239 239 240 241 239 236 235 237 238 239 242 244 246 250 252 253 253 251 249 250 250 251 253
232 231 228 228 231 230 232 237 242 245 247 245 240 235 235 237 238 237 238 241 242 242 241 240 239 239 240 241 242 244 246 248 250 251 252 253 253 253 252 251 251 252
232 235 234 232 232 234 236 238 237 237 244 250 248 243 242 243 242 240 241 243 246 246 244 242 243 243 245 246 247 248 249 250 251 251 251 251 251 251 251 251 252 254
Height
3227 3229 3230 3231 3233 3234 3235 3236 3237 3238 3239 3240 3241 3242 3243 3243 3244 3245 3245 3246 3246 3247 3247 3248 3249 3249 3250 3251 3251 3252 3252 3253 3253 3253 3254 3255 3256 3257 3257 3258 3258 3259
3226 3227 3229 3230 3231 3232 3233 3235 3236 3237 3238 3239 3240 3241 3242 3242 3243 3244 3245 3245 3246 3246 3247 3247 3248 3249 3249 3250 3250 3251 3251 3252 3252 3253 3253 3254 3255 3256 3256 3257 3258 3258
3225 3226 3227 3229 3230 3231 3232 3233 3234 3235 3237 3238 3239 3240 3241 3241 3242 3243 3244 3245 3245 3246 3246 3247 3247 3248 3249 3249 3250 3250 3251 3251 3252 3252 3253 3253 3254 3255 3255 3256 3257 3258
3223 3225 3226 3227 3228 3229 3231 3232 3233 3234 3235 3237 3238 3239 3240 3240 3241 3242 3243 3244 3244 3245 3246 3246 3247 3248 3248 3249 3249 3250 3250 3251 3251 3252 3252 3252 3253 3254 3254 3255 3256 3257
3222 3224 3225 3226 3227 3228 3229 3231 3232 3233 3234 3235 3236 3238 3239 3239 3240 3241 3242 3243 3243 3244 3245 3246 3247 3247 3248 3248 3249 3249 3250 3250 3250 3251 3251 3252 3252 3253 3253 3254 3255 3256
3221 3222 3223 3225 3226 3227 3228 3230 3231 3232 3233 3234 3235 3236 3237 3238 3239 3240 3241 3242 3242 3243 3244 3245 3246 3247 3247 3248 3248 3248 3249 3249 3250 3250 3251 3251 3251 3252 3252 3253 3254 3255
3219 3220 3222 3223 3224 3225 3227 3228 3229 3231 3232 3232 3233 3234 3236 3237 3238 3239 3240 3241 3241 3242 3243 3244 3245 3246 3246 3247 3248 3248 3248 3249 3249 3249 3250 3250 3251 3251 3252 3252 3253 3254
3218 3219 3220 3221 3222 3223 3225 3227 3228 3229 3230 3231 3232 3233 3234 3235 3237 3238 3238 3239 3240 3241 3242 3243 3244 3245 3245 3246 3247 3248 3248 3248 3249 3249 3249 3250 3250 3251 3251 3252 3252 3253
3216 3217 3218 3219 3220 3222 3223 3225 3226 3228 3229 3230 3230 3231 3232 3234 3235 3236 3237 3238 3239 3240 3241 3242 3242 3243 3244 3245 3246 3247 3247 3248 3248 3249 3249 3249 3250 3250 3251 3251 3252 3252
3213 3214 3216 3217 3218 3220 3221 3223 3225 3226 3227 3228 3229 3230 3231 3232 3233 3234 3235 3236 3237 3238 3239 3240 3241 3242 3242 3243 3244 3245 3246 3247 3247 3248 3249 3249 3250 3250 3250 3251 3251 3252
3211 3212 3214 3215 3216 3218 3219 3221 3222 3224 3225 3226 3228 3229 3229 3230 3231 3232 3234 3235 3236 3237 3238 3238 3239 3240 3240 3241 3242 3243 3245 3245 3246 3247 3248 3248 3249 3249 3250 3250 3251 3251
3209 3210 3212 3214 3215 3216 3218 3219 3220 3221 3223 3224 3226 3227 3228 3229 3230 3231 3232 3233 3234 3235 3236 3237 3237 3238 3239 3239 3240 3241 3243 3244 3245 3246 3247 3247 3248 3248 3249 3249 3250 3250
3208 3209 3211 3213 3214 3216 3216 3217 3218 3219 3221 3222 3224 3225 3226 3227 3228 3229 3230 3232 3232 3233 3234 3235 3236 3236 3237 3238 3238 3239 3240 3242 3243 3244 3245 3246 3246 3247 3247 3248 3248 3249
3205 3207 3208 3210 3212 3214 3215 3215 3216 3217 3219 3220 3221 3223 3224 3225 3226 3227 3228 3230 3231 3232 3232 3233 3234 3235 3236 3237 3237 3238 3239 3240 3241 3242 3243 3244 3245 3245 3245 3246 3247 3247
3202 3205 3207 3207 3208 3209 3212 3213 3214 3215 3216 3217 3219 3220 3221 3223 3224 3224 3225 3227 3229 3230 3231 3231 3232 3233 3234 3235 3236 3237 3237 3238 3239 3240 3241 3242 3243 3243 3244 3244 3245 3245
3203 3204 3206 3207 3206 3206 3207 3210 3212 3213 3213 3214 3216 3217 3218 3220 3221 3222 3223 3224 3226 3228 3229 3230 3231 3231 3232 3233 3234 3235 3235 3236 3237 3238 3239 3240 3240 3241 3242 3242 3243 3243
3200 3201 3203 3205 3206 3206 3205 3206 3207 3209 3210 3212 3213 3214 3216 3217 3218 3219 3221 3222 3223 3225 3226 3228 3229 3230 3230 3231 3231 3232 3233 3234 3235 3236 3236 3237 3238 3239 3239 3240 3240 3241
3195 3197 3199 3201 3203 3205 3205 3205 3205 3205 3206 3208 3210 3211 3213 3214 3216 3217 3219 3219 3220 3221 3223 3225 3226 3228 3228 3229 3229 3230 3230 3231 3232 3233 3234 3235 3236 3236 3237 3237 3238 3238
3193 3195 3197 3198 3199 3200 3202 3204 3204 3203 3202 3204 3206 3208 3209 3211 3213 3215 3216 3217 3218 3219 3220 3222 3224 3225 3226 3226 3227 3228 3228 3229 3229 3230 3231 3232 3233 3233 3234 3234 3235 3235
3192 3193 3194 3195 3196 3197 3198 3200 3201 3200 3199 3201 3203 3205 3206 3208 3210 3212 3214 3215 3216 3216 3217 3219 3221 3222 3223 3224 3224 3225 3226 3226 3227 3227 3228 3229 3230 3230 3231 3232 3233 3233
3189 3190 3191 3192 3192 3193 3193 3195 3196 3196 3197 3199 3201 3203 3204 3206 3208 3210 3211 3213 3214 3214 3215 3216 3218 3219 3221 3221 3222 3223 3223 3224 3224 3224 3225 3226 3227 3228 3229 3230 3230 3231
3187 3187 3188 3189 3189 3190 3190 3192 3194 3195 3197 3199 3200 3201 3203 3204 3205 3206 3208 3209 3211 3211 3212 3213 3215 3216 3218 3219 3220 3221 3221 3221 3221 3222 3222 3223 3224 3225 3226 3227 3228 3228
3184 3185 3186 3187 3188 3188 3190 3192 3194 3195 3196 3197 3198 3199 3201 3202 3202 3204 3205 3206 3207 3208 3209 3210 3212 3213 3214 3216 3217 3218 3218 3219 3219 3219 3220 3220 3221 3222 3223 3224 3224 3225
3182 3183 3184 3185 3186 3186 3187 3189 3191 3192 3193 3195 3195 3196 3198 3198 3199 3200 3202 3203 3204 3204 3205 3206 3208 3209 3210 3211 3213 3214 3215 3215 3216 3216 3217 3218 3219 3219 3220 3220 3221 3222
3181 3181 3182 3183 3183 3184 3184 3186 3188 3189 3191 3193 3194 3195 3195 3196 3196 3197 3198 3199 3200 3201 3202 3203 3204 3206 3206 3207 3208 3209 3210 3211 3212 3212 3213 3214 3215 3216 3216 3217 3218 3219
3179 3179 3180 3180 3181 3182 3183 3184 3186 3188 3190 3191 3192 3193 3194 3194 3194 3194 3195 3197 3198 3198 3199 3200 3201 3202 3202 3203 3204 3204 3205 3206 3207 3208 3209 3210 3210 3211 3211 3212 3213 3214